STARLINK-2369 (47909 NORAD) Tracking and Keplerian Element Data

This shows tracking and keplerian element data for the satellite.

Feedback or suggestion? Click here.




ElementValue
Catalog47909
NameSTARLINK-2369
Epoch Orbit197
Epoch Day173.91668981
Epoch Year2021
RAAN79.424
Inclination53.0477
Eccentricity0.0001348
Argument of Perigee68.4353
Mean Anonmoly85.8576
Mean Motion15.49926429
Decay Rate-0.01081591
L11 47909U 21021BB 21173.91668981 -.01081591 00000-0 -20998-1 0 9993
L22 47909 53.0477 79.4240 0001348 68.4353 85.8576 15.49926429 1975

Live tracking and technical data element details for STARLINK-2369 (NORAD 47909). STARLINK-2369 can be tracked NOW for your location showing map with azimuth and elevation plus other details from your city location.

Track the satellite on the map from your city or location and see movement details for azimuth, elevation, latitude, longitude, range, height, and movement on the map or in text.







IsCatalogInMostPopularTable: catalog: 47909, numindb: 47
Update: records affected: 1



GetName: 47909 STARLINK-2369

Hit Count: updated at: Thu, 24 Jun 2021 04:15:51 GMT